Time[GMT],significant_wave_height[m](0m),dominant_wave_period[s](0m)
2008-10-01 15:00, 0.65,4.0
2008-10-01 16:00, 0.66,3.6
2008-10-01 17:00, 0.71,4.0
2008-10-01 18:00, 0.69,4.6
2008-10-01 20:00, 0.71,4.6
2008-10-01 21:00, 1.38,10.7
2008-10-01 22:00, 0.91,5.3
2008-10-01 23:00, 1.45,10.7
2008-10-02 00:00, 1.39,10.7
2008-10-02 01:00, 1.59,10.7
2008-10-02 02:00, 1.18,10.7
2008-10-02 03:00, 1.17,10.7
2008-10-02 04:00, 1.20,10.7
2008-10-02 05:00, 0.66,5.3
2008-10-02 06:00, 0.70,5.3
2008-10-02 07:00, 1.18,10.7
2008-10-02 08:00, 1.07,10.7
2008-10-02 09:00, 1.17,10.7
2008-10-02 10:00, 1.06,10.7
2008-10-02 11:00, 1.18,10.7
2008-10-02 12:00, 1.33,10.7
2008-10-02 13:00,,
2008-10-02 14:00, 0.81,3.2
2008-10-02 15:00, 0.71,3.6
2008-10-02 16:00, 1.34,10.7
2008-10-02 19:00, 0.89,4.0
2008-10-02 21:00, 0.84,4.0
2008-10-02 22:00, 0.66,3.6
2008-10-02 23:00, 0.83,4.0
2008-10-03 00:00, 0.80,3.6
2008-10-03 01:00, 0.83,3.6
2008-10-03 02:00, 0.89,4.0
2008-10-03 03:00, 0.87,4.0
2008-10-03 04:00, 0.78,4.0
2008-10-03 06:00,,
2008-10-03 07:00, 0.87,10.7
2008-10-03 08:00, 0.56,3.2
2008-10-03 09:00, 0.77,3.6
2008-10-03 10:00, 0.88,4.0
2008-10-03 11:00, 0.89,4.0
2008-10-03 12:00, 1.13,4.0
2008-10-03 13:00, 1.21,4.0
2008-10-03 14:00, 1.15,4.6
2008-10-03 15:00, 1.15,4.0
2008-10-03 16:00, 0.90,4.0
2008-10-03 18:00, 1.06,4.6
2008-10-03 19:00, 0.96,4.6
2008-10-03 20:00, 0.82,4.0
2008-10-03 22:00, 0.76,3.6
2008-10-03 23:00, 0.79,3.6
2008-10-04 00:00, 0.75,4.0
2008-10-04 01:00, 0.76,3.6
2008-10-04 02:00, 0.72,3.6
2008-10-04 03:00, 0.71,3.6
2008-10-04 04:00, 0.65,4.0
2008-10-04 05:00, 0.71,3.6
2008-10-04 06:00, 0.73,4.0
2008-10-04 07:00, 0.61,3.6
2008-10-04 08:00, 0.62,2.9
2008-10-04 09:00, 0.63,3.6
2008-10-04 10:00, 0.68,3.6
2008-10-04 11:00, 0.61,3.6
2008-10-04 12:00, 0.61,3.2
2008-10-04 14:00,,
2008-10-04 15:00, 0.59,3.6
2008-10-04 16:00, 0.54,3.2
2008-10-04 17:00, 0.53,3.2
2008-10-04 18:00, 0.56,3.2
2008-10-04 19:00, 0.54,3.2
2008-10-04 20:00, 0.50,2.9
2008-10-04 21:00, 0.53,3.2
2008-10-04 22:00, 0.44,2.9
2008-10-04 23:00, 0.36,2.9
2008-10-05 00:00, 0.23,3.2
2008-10-05 01:00, 0.34,8.0
2008-10-05 02:00, 0.31,2.5
2008-10-05 03:00, 0.32,2.7
2008-10-05 04:00, 0.47,8.0
2008-10-05 05:00, 0.37,2.9
2008-10-05 06:00, 0.36,2.7
2008-10-05 07:00, 0.34,2.7
2008-10-05 08:00, 0.32,2.9
2008-10-05 09:00, 0.42,8.0
2008-10-05 10:00, 0.35,8.0
2008-10-05 11:00, 0.23,2.7
2008-10-05 12:00, 0.34,8.0
2008-10-05 13:00, 0.29,8.0
2008-10-05 14:00, 0.30,8.0
2008-10-05 15:00, 0.30,8.0
2008-10-05 16:00, 0.31,8.0
2008-10-05 17:00, 0.32,8.0
2008-10-05 18:00, 0.25,8.0
2008-10-05 19:00, 0.28,8.0
2008-10-05 20:00, 0.27,8.0
2008-10-05 21:00, 0.30,8.0
2008-10-05 22:00, 0.28,8.0
2008-10-05 23:00, 0.17,3.2
2008-10-06 00:00, 0.32,8.0
2008-10-06 01:00, 0.28,8.0
2008-10-06 02:00, 0.21,2.7
2008-10-06 03:00, 0.22,2.7
2008-10-06 04:00, 0.22,2.9
2008-10-06 05:00, 0.30,8.0
2008-10-06 06:00, 0.28,8.0
2008-10-06 07:00, 0.33,8.0
2008-10-06 08:00, 0.44,2.9
2008-10-06 09:00, 0.56,3.6
2008-10-06 10:00, 0.62,4.0
2008-10-06 11:00,,
2008-10-06 12:00, 0.63,4.0
2008-10-06 13:00, 0.62,4.0
2008-10-06 14:00, 0.64,4.0
2008-10-06 15:00, 0.61,4.0
2008-10-06 16:00, 0.58,4.0
2008-10-06 17:00, 0.66,4.0
2008-10-06 19:00, 0.53,4.0
2008-10-06 20:00, 0.50,4.0
2008-10-06 21:00, 0.49,4.0
2008-10-06 22:00, 0.41,4.0
2008-10-06 23:00, 0.43,4.0
2008-10-07 00:00, 0.61,2.5
2008-10-07 01:00, 0.67,4.0
2008-10-07 02:00, 0.77,4.0
2008-10-07 03:00, 0.77,4.0
2008-10-07 04:00, 0.86,4.6
2008-10-07 05:00, 0.86,5.3
2008-10-07 06:00, 0.92,5.3
2008-10-07 07:00, 0.96,5.3
2008-10-07 08:00, 0.89,4.6
2008-10-07 09:00, 0.80,5.3
2008-10-07 10:00, 0.79,4.6
2008-10-07 11:00, 0.74,4.6
2008-10-07 12:00, 0.82,2.9
2008-10-07 16:00, 0.36,2.5
2008-10-07 21:00, 0.25,2.0
2008-10-07 22:00, 0.30,2.3
2008-10-07 23:00, 0.29,2.5
2008-10-08 00:00, 0.30,2.3
2008-10-08 01:00, 0.33,2.3
2008-10-08 02:00, 0.33,2.3
2008-10-08 03:00, 0.31,2.3
2008-10-08 04:00, 0.40,2.7
2008-10-08 05:00, 0.30,2.1
2008-10-08 06:00, 0.24,2.3
2008-10-08 07:00, 0.20,2.1
2008-10-08 08:00, 0.23,2.1
2008-10-08 09:00, 0.28,2.7
2008-10-08 10:00, 0.26,2.7
2008-10-08 11:00, 0.26,2.5
2008-10-08 12:00, 0.28,2.0
2008-10-08 13:00, 0.27,2.1
2008-10-08 14:00, 0.22,2.1
2008-10-08 21:00, 0.39,2.3
2008-10-08 22:00, 0.27,2.5
2008-10-08 23:00, 0.37,2.9
2008-10-09 00:00, 0.49,2.9
2008-10-09 01:00, 0.50,3.6
2008-10-09 02:00, 0.58,3.6
2008-10-09 03:00, 0.61,4.0
2008-10-09 04:00, 0.66,3.6
2008-10-09 05:00, 0.68,3.6
2008-10-09 06:00, 0.62,3.6
2008-10-09 07:00, 0.68,3.6
2008-10-09 08:00, 0.62,3.6
2008-10-09 09:00, 0.57,3.6
2008-10-09 10:00, 0.61,3.2
2008-10-09 11:00, 0.60,3.2
2008-10-09 12:00, 0.65,3.6
2008-10-09 13:00, 0.71,3.6
2008-10-09 14:00, 0.80,3.6
2008-10-09 15:00, 0.78,3.6
2008-10-09 19:00, 0.50,2.9
2008-10-09 21:00, 0.41,3.2
2008-10-09 22:00, 0.38,3.2
2008-10-09 23:00, 0.34,2.7
2008-10-10 00:00, 0.29,2.7
2008-10-10 01:00, 0.33,2.5
2008-10-10 02:00, 0.34,2.3
2008-10-10 03:00, 0.31,2.5
2008-10-10 04:00, 0.31,2.3
2008-10-10 05:00, 0.33,2.7
2008-10-10 06:00, 0.35,2.7
2008-10-10 07:00, 0.33,2.5
2008-10-10 08:00, 0.36,3.2
2008-10-10 09:00, 0.40,2.9
2008-10-10 10:00, 0.41,2.7
2008-10-10 11:00, 0.35,2.7
2008-10-10 12:00, 0.28,2.7
2008-10-10 13:00, 0.33,2.5
2008-10-10 21:00, 0.20,5.3
2008-10-10 22:00, 0.25,8.0
2008-10-10 23:00, 0.23,10.7
2008-10-11 00:00, 0.17,6.4
2008-10-11 01:00, 0.25,10.7
2008-10-11 02:00, 0.08,2.9
2008-10-11 03:00, 0.15,6.4
2008-10-11 04:00, 0.21,8.0
2008-10-11 05:00, 0.27,8.0
2008-10-11 06:00, 0.20,1.9
2008-10-11 07:00, 0.17,2.0
2008-10-11 08:00, 0.27,8.0
2008-10-11 09:00, 0.20,6.4
2008-10-11 10:00, 0.27,8.0
2008-10-11 11:00, 0.30,8.0
2008-10-11 12:00, 0.27,2.7
2008-10-11 21:00, 0.22,5.3
2008-10-11 22:00, 0.29,8.0
2008-10-11 23:00, 0.24,5.3
2008-10-12 00:00, 0.21,2.1
2008-10-12 01:00, 0.23,6.4
2008-10-12 02:00, 0.18,6.4
2008-10-12 03:00, 0.11,3.6
2008-10-12 04:00, 0.28,2.0
2008-10-12 05:00, 0.38,2.7
2008-10-12 07:00,,
2008-10-12 08:00, 0.29,3.2
2008-10-12 09:00, 0.29,2.7
2008-10-12 10:00, 0.26,2.9
2008-10-12 11:00, 0.27,2.5
2008-10-12 12:00, 0.26,2.9
2008-10-12 14:00, 0.19,2.3
2008-10-12 18:00, 0.24,4.0
2008-10-12 21:00, 0.30,4.0
2008-10-12 22:00, 0.24,3.2
2008-10-12 23:00, 0.31,4.0
2008-10-13 00:00, 0.36,2.7
2008-10-13 01:00, 0.38,2.7
2008-10-13 02:00, 0.39,2.7
2008-10-13 03:00, 0.37,2.7
2008-10-13 04:00, 0.31,2.7
2008-10-13 05:00, 0.31,2.7
2008-10-13 06:00, 0.29,2.7
2008-10-13 07:00, 0.28,2.7
2008-10-13 08:00, 0.23,2.7
2008-10-13 09:00, 0.25,4.6
2008-10-13 10:00, 0.18,4.6
2008-10-13 11:00, 0.20,4.6
2008-10-13 12:00, 0.19,3.6
2008-10-13 13:00, 0.25,2.1
2008-10-13 14:00, 0.21,2.1
2008-10-13 15:00, 0.26,4.6
2008-10-13 16:00, 0.28,2.1
2008-10-13 17:00, 0.30,2.5
2008-10-13 19:00, 0.38,3.2
2008-10-13 21:00, 0.49,3.6
2008-10-13 22:00, 0.45,4.0
2008-10-13 23:00, 0.55,4.0
2008-10-14 00:00, 0.47,3.6
2008-10-14 01:00, 0.52,4.6
2008-10-14 02:00, 0.55,4.6
2008-10-14 03:00, 0.50,4.0
2008-10-14 04:00, 0.42,4.0
2008-10-14 05:00, 0.39,4.6
2008-10-14 06:00, 0.40,4.6
2008-10-14 07:00, 0.44,4.6
2008-10-14 08:00, 0.59,5.3
2008-10-14 09:00, 0.57,5.3
2008-10-14 10:00, 0.63,5.3
2008-10-14 11:00, 0.63,5.3
2008-10-14 12:00, 0.59,5.3
2008-10-14 13:00, 0.59,5.3
2008-10-14 14:00, 0.61,5.3
2008-10-14 18:00, 0.66,5.3
2008-10-14 20:00, 0.79,3.6
2008-10-14 21:00, 1.00,4.6
2008-10-14 22:00, 0.98,4.0
2008-10-14 23:00, 0.92,4.0
2008-10-15 01:00, 0.92,4.0
2008-10-15 02:00, 0.83,6.4
2008-10-15 03:00, 0.86,4.6
2008-10-15 04:00,,
2008-10-15 05:00, 0.67,5.3
2008-10-15 06:00, 0.64,6.4
2008-10-15 07:00, 0.58,6.4
2008-10-15 08:00, 0.34,4.0
2008-10-15 09:00, 0.65,8.0
2008-10-15 10:00, 0.52,6.4
2008-10-15 11:00, 0.53,6.4
2008-10-15 12:00, 0.69,3.2
2008-10-15 13:00, 0.70,3.6
2008-10-15 14:00, 0.75,3.6
2008-10-15 18:00, 0.77,10.7
2008-10-15 21:00, 0.96,10.7
2008-10-15 22:00, 0.88,8.0
2008-10-15 23:00, 1.00,8.0
2008-10-16 00:00, 1.00,10.7
2008-10-16 01:00, 0.92,8.0
2008-10-16 02:00, 1.01,10.7
2008-10-16 03:00, 0.97,10.7
2008-10-16 04:00, 0.83,10.7
2008-10-16 05:00, 0.80,8.0
2008-10-16 06:00, 0.95,8.0
2008-10-16 07:00, 0.97,10.7
2008-10-16 08:00, 0.98,8.0
2008-10-16 09:00, 1.07,8.0
2008-10-16 10:00, 1.07,8.0
2008-10-16 11:00, 0.94,8.0
2008-10-16 12:00, 0.91,8.0
2008-10-16 13:00, 0.96,8.0
2008-10-16 14:00, 1.07,8.0
2008-10-16 15:00, 1.16,8.0
2008-10-16 16:00, 0.98,8.0
2008-10-16 17:00, 0.90,8.0
2008-10-16 18:00, 1.19,10.7
2008-10-16 19:00, 0.58,4.0
2008-10-16 20:00, 1.03,10.7
2008-10-16 21:00, 0.97,10.7
2008-10-16 22:00, 0.79,8.0
2008-10-16 23:00, 1.14,10.7
2008-10-17 00:00, 0.84,2.9
2008-10-17 01:00, 0.87,3.2
2008-10-17 02:00, 0.63,3.2
2008-10-17 03:00, 1.01,8.0
2008-10-17 04:00,,
2008-10-17 05:00, 0.71,8.0
2008-10-17 06:00, 0.72,8.0
2008-10-17 07:00,,
2008-10-17 08:00, 0.58,2.7
2008-10-17 09:00, 0.54,2.9
2008-10-17 10:00, 0.58,2.7
2008-10-17 11:00, 0.59,2.7
2008-10-17 12:00, 0.66,3.6
2008-10-17 13:00, 0.70,3.6
2008-10-17 14:00, 0.94,4.6
2008-10-17 15:00, 1.04,4.6
2008-10-17 16:00, 1.23,5.3
2008-10-17 17:00, 1.02,5.3
2008-10-17 19:00, 0.89,5.3
2008-10-17 20:00, 0.66,5.3
2008-10-17 21:00, 0.80,8.0
2008-10-17 22:00, 0.67,10.7
2008-10-17 23:00, 0.60,10.7
2008-10-18 00:00, 0.57,8.0
2008-10-18 01:00, 0.58,8.0
2008-10-18 02:00, 0.48,4.0
2008-10-18 03:00, 1.24,4.6
2008-10-18 04:00, 1.71,5.3
2008-10-18 05:00, 1.77,5.3
2008-10-18 06:00, 1.62,5.3
2008-10-18 07:00, 1.48,5.3
2008-10-18 08:00, 1.38,5.3
2008-10-18 09:00, 1.72,6.4
2008-10-18 10:00, 1.53,6.4
2008-10-18 11:00, 1.71,6.4
2008-10-18 12:00, 1.51,5.3
2008-10-18 13:00, 1.33,6.4
2008-10-18 14:00, 1.24,5.3
2008-10-18 15:00, 1.24,5.3
2008-10-18 16:00, 1.14,5.3
2008-10-18 17:00, 1.26,5.3
2008-10-18 18:00, 1.00,5.3
2008-10-18 19:00,,
2008-10-18 20:00, 1.00,4.6
2008-10-18 21:00, 0.96,5.3
2008-10-18 22:00, 0.90,5.3
2008-10-18 23:00, 1.02,4.6
2008-10-19 00:00, 0.99,6.4
2008-10-19 01:00, 1.03,6.4
2008-10-19 02:00, 1.01,6.4
2008-10-19 03:00, 1.14,6.4
2008-10-19 04:00, 1.18,5.3
2008-10-19 05:00, 1.35,4.0
2008-10-19 06:00, 1.57,4.6
2008-10-19 07:00, 1.62,5.3
2008-10-19 08:00, 2.15,6.4
2008-10-19 09:00, 2.54,6.4
2008-10-19 10:00, 1.81,6.4
2008-10-19 11:00, 2.28,6.4
2008-10-19 12:00, 2.38,6.4
2008-10-19 13:00, 2.63,6.4
2008-10-19 14:00, 2.76,8.0
2008-10-19 15:00, 2.78,6.4
2008-10-19 16:00, 2.71,8.0
2008-10-19 17:00, 2.44,6.4
2008-10-19 18:00, 2.30,8.0
2008-10-19 19:00, 2.49,8.0
2008-10-19 20:00, 2.57,8.0
2008-10-19 21:00, 2.89,8.0
2008-10-19 22:00, 2.58,8.0
2008-10-19 23:00,,
2008-10-20 00:00, 2.61,8.0
2008-10-20 01:00, 3.42,8.0
2008-10-20 02:00, 2.99,8.0
2008-10-20 03:00, 3.14,8.0
2008-10-20 04:00, 2.78,8.0
2008-10-20 05:00, 3.00,8.0
2008-10-20 06:00, 3.11,10.7
2008-10-20 07:00, 2.98,10.7
2008-10-20 08:00, 3.16,10.7
2008-10-20 09:00, 3.69,10.7
2008-10-20 10:00, 3.23,10.7
2008-10-20 11:00, 3.63,10.7
2008-10-20 13:00, 3.66,10.7
2008-10-20 14:00, 3.34,10.7
2008-10-20 15:00, 3.11,10.7
2008-10-20 16:00, 3.16,10.7
2008-10-20 17:00, 3.21,10.7
2008-10-20 18:00, 3.36,10.7
2008-10-20 19:00, 3.27,10.7
2008-10-20 20:00, 2.71,10.7
2008-10-20 21:00, 3.03,10.7
2008-10-20 22:00, 3.21,10.7
2008-10-20 23:00, 2.65,10.7
2008-10-21 00:00, 3.33,10.7
2008-10-21 01:00, 2.81,10.7
2008-10-21 02:00, 3.33,10.7
2008-10-21 03:00, 2.72,10.7
2008-10-21 04:00, 2.42,10.7
2008-10-21 05:00, 2.19,10.7
2008-10-21 06:00, 2.22,10.7
2008-10-21 07:00, 2.19,10.7
2008-10-21 08:00, 2.99,10.7
2008-10-21 09:00, 2.32,10.7
2008-10-21 10:00, 2.38,10.7
2008-10-21 11:00, 2.67,10.7
2008-10-21 12:00, 2.21,10.7
2008-10-21 13:00, 2.38,10.7
2008-10-21 14:00, 2.01,10.7
2008-10-21 15:00, 2.37,10.7
2008-10-21 16:00, 1.78,10.7
2008-10-21 17:00, 1.78,10.7
2008-10-21 18:00, 1.63,10.7
2008-10-21 19:00, 1.61,10.7
2008-10-21 20:00, 1.60,10.7
2008-10-21 21:00, 1.31,10.7
2008-10-21 22:00, 1.37,10.7
2008-10-21 23:00, 1.45,10.7
2008-10-22 00:00, 1.22,10.7
2008-10-22 01:00, 1.32,10.7
2008-10-22 02:00, 1.53,10.7
2008-10-22 03:00, 1.78,10.7
2008-10-22 04:00, 1.67,10.7
2008-10-22 05:00, 1.55,10.7
2008-10-22 06:00,,
2008-10-22 07:00, 1.82,10.7
2008-10-22 08:00, 1.97,5.3
2008-10-22 09:00, 2.01,6.4
2008-10-22 10:00, 2.29,6.4
2008-10-22 11:00, 2.84,6.4
2008-10-22 12:00, 2.81,6.4
2008-10-22 13:00, 2.90,8.0
2008-10-22 14:00, 2.81,8.0
2008-10-22 15:00, 3.14,8.0
2008-10-22 16:00, 3.26,8.0
2008-10-22 17:00, 3.31,8.0
2008-10-22 18:00, 2.63,8.0
2008-10-22 19:00, 2.92,8.0
2008-10-22 20:00, 3.30,8.0
2008-10-22 21:00, 3.40,8.0
2008-10-22 22:00, 3.62,8.0
2008-10-22 23:00, 2.99,8.0
2008-10-23 00:00, 3.03,8.0
2008-10-23 01:00, 3.02,10.7
2008-10-23 02:00, 2.55,8.0
2008-10-23 03:00, 3.18,10.7
2008-10-23 04:00, 3.20,10.7
2008-10-23 05:00, 2.76,8.0
2008-10-23 06:00,,
2008-10-23 07:00, 2.56,8.0
2008-10-23 08:00, 2.78,8.0
2008-10-23 09:00, 2.82,8.0
2008-10-23 10:00, 2.62,8.0
2008-10-23 11:00, 2.67,8.0
2008-10-23 12:00, 2.12,10.7
2008-10-23 13:00, 2.39,10.7
2008-10-23 14:00, 2.29,8.0
2008-10-23 15:00,,
2008-10-23 16:00, 2.22,10.7
2008-10-23 17:00, 2.51,10.7
2008-10-23 18:00, 2.16,10.7
2008-10-23 19:00, 2.35,8.0
2008-10-23 20:00, 2.13,8.0
2008-10-23 21:00, 2.00,10.7
2008-10-23 22:00, 1.96,8.0
2008-10-23 23:00, 1.78,10.7
2008-10-24 00:00, 1.82,10.7
2008-10-24 01:00, 2.32,10.7
2008-10-24 02:00, 2.17,10.7
2008-10-24 03:00, 2.25,10.7
2008-10-24 04:00, 2.04,10.7
2008-10-24 05:00, 0.76,5.3
2008-10-24 06:00, 2.48,10.7
2008-10-24 07:00, 1.84,10.7
2008-10-24 08:00, 1.72,10.7
2008-10-24 09:00, 1.66,10.7
2008-10-24 10:00, 1.78,10.7
2008-10-24 11:00,,
2008-10-24 12:00,,
2008-10-24 13:00, 1.41,10.7
2008-10-24 14:00, 1.62,10.7
2008-10-24 15:00, 1.53,10.7
2008-10-24 16:00, 1.45,10.7
2008-10-24 17:00, 1.29,10.7
2008-10-24 18:00, 1.43,10.7
2008-10-24 19:00, 1.18,10.7
2008-10-24 20:00, 1.50,10.7
2008-10-24 21:00, 1.52,10.7
2008-10-24 22:00, 0.97,10.7
2008-10-24 23:00, 1.10,10.7
2008-10-25 00:00,,
2008-10-25 01:00, 1.14,10.7
2008-10-25 02:00, 1.37,10.7
2008-10-25 03:00, 1.23,10.7
2008-10-25 04:00, 1.24,10.7
2008-10-25 05:00, 1.43,10.7
2008-10-25 06:00,,
2008-10-25 07:00, 1.07,10.7
2008-10-25 08:00, 0.97,10.7
2008-10-25 09:00, 0.75,8.0
2008-10-25 10:00, 0.95,8.0
2008-10-25 11:00, 0.74,8.0
2008-10-25 12:00,,
2008-10-25 13:00, 0.46,2.9
2008-10-25 14:00, 1.00,10.7
2008-10-25 15:00,,
2008-10-25 16:00, 1.18,10.7
2008-10-25 17:00, 1.13,4.6
2008-10-25 18:00, 1.05,4.6
2008-10-25 19:00,,
2008-10-25 20:00, 1.01,5.3
2008-10-25 21:00, 1.18,5.3
2008-10-25 22:00, 1.79,5.3
2008-10-25 23:00, 1.84,6.4
2008-10-26 00:00,,
2008-10-26 01:00,,
2008-10-26 02:00, 2.51,6.4
2008-10-26 03:00, 2.33,6.4
2008-10-26 04:00, 2.75,6.4
2008-10-26 05:00,,
2008-10-26 06:00, 2.44,6.4
2008-10-26 07:00, 2.54,8.0
2008-10-26 08:00,,
2008-10-26 09:00, 2.57,5.3
2008-10-26 10:00, 2.44,8.0
2008-10-26 11:00, 1.83,6.4
2008-10-26 12:00, 2.20,8.0
2008-10-26 13:00, 2.12,6.4
2008-10-26 14:00, 1.96,8.0
2008-10-26 15:00, 1.56,6.4
2008-10-26 17:00, 1.50,10.7
2008-10-26 18:00, 1.74,10.7
2008-10-26 20:00, 1.80,10.7
2008-10-26 21:00, 1.66,8.0
2008-10-26 22:00, 1.51,8.0
2008-10-26 23:00, 1.58,8.0
2008-10-27 00:00, 1.36,10.7
2008-10-27 01:00, 1.56,10.7
2008-10-27 02:00, 1.41,10.7
2008-10-27 03:00, 1.52,8.0
2008-10-27 04:00, 1.45,10.7
2008-10-27 05:00, 1.60,10.7
2008-10-27 06:00, 1.37,10.7
2008-10-27 07:00, 1.51,10.7
2008-10-27 08:00, 1.52,10.7
2008-10-27 09:00, 1.35,10.7
2008-10-27 10:00, 1.49,8.0
2008-10-27 11:00, 1.34,8.0
2008-10-27 12:00, 1.22,8.0
2008-10-27 13:00, 1.07,10.7
2008-10-27 14:00, 1.19,8.0
2008-10-27 17:00, 1.12,8.0
2008-10-27 19:00, 1.48,10.7
2008-10-27 21:00, 1.22,10.7
2008-10-27 22:00, 1.31,8.0
2008-10-27 23:00, 1.09,8.0
2008-10-28 00:00, 0.98,10.7
2008-10-28 01:00, 0.98,10.7
2008-10-28 02:00, 1.12,10.7
2008-10-28 03:00, 1.16,10.7
2008-10-28 04:00, 1.11,8.0
2008-10-28 05:00, 0.97,8.0
2008-10-28 06:00, 0.91,8.0
2008-10-28 07:00, 1.07,8.0
2008-10-28 08:00, 1.11,8.0
2008-10-28 09:00, 1.36,8.0
2008-10-28 10:00, 1.12,8.0
2008-10-28 11:00, 1.14,8.0
2008-10-28 12:00, 1.18,8.0
2008-10-28 13:00, 1.15,8.0
2008-10-28 14:00, 1.04,4.6
2008-10-28 15:00, 0.76,4.6
2008-10-28 16:00, 1.12,8.0
2008-10-28 17:00,,
2008-10-28 18:00,,
2008-10-28 19:00, 1.29,4.0
2008-10-28 20:00, 1.99,5.3
2008-10-28 21:00, 1.89,5.3
2008-10-28 22:00, 1.99,5.3
2008-10-28 23:00, 2.56,6.4
2008-10-29 00:00,,
2008-10-29 01:00, 2.48,6.4
2008-10-29 02:00,,
2008-10-29 03:00, 2.36,8.0
2008-10-29 04:00, 2.35,8.0
2008-10-29 05:00, 2.31,5.3
2008-10-29 06:00, 2.03,6.4
2008-10-29 07:00, 2.64,5.3
2008-10-29 08:00, 2.07,5.3
2008-10-29 09:00, 1.79,5.3
2008-10-29 10:00, 1.99,5.3
2008-10-29 11:00, 1.94,5.3
2008-10-29 12:00, 1.68,5.3
2008-10-29 13:00, 2.12,5.3
2008-10-29 14:00, 1.24,4.6
2008-10-29 15:00, 1.37,4.6
2008-10-29 16:00, 1.42,4.6
2008-10-29 17:00, 1.39,4.6
2008-10-29 18:00, 1.32,4.6
2008-10-29 19:00, 1.15,4.6
2008-10-29 20:00, 1.19,4.0
2008-10-29 21:00, 1.00,4.6
2008-10-29 22:00, 1.15,4.6
2008-10-29 23:00, 1.23,4.6
2008-10-30 00:00, 1.22,4.6
2008-10-30 01:00, 1.02,4.6
2008-10-30 02:00, 1.05,4.6
2008-10-30 03:00, 1.42,10.7
2008-10-30 04:00, 0.87,4.0
2008-10-30 05:00, 0.87,4.0
2008-10-30 06:00, 0.78,4.0
2008-10-30 07:00, 1.05,10.7
2008-10-30 08:00, 0.71,3.6
2008-10-30 09:00, 0.71,3.6
2008-10-30 10:00, 0.68,2.7
2008-10-30 11:00, 0.70,3.2
2008-10-30 12:00, 0.78,3.6
2008-10-30 13:00, 0.80,3.6
2008-10-30 14:00, 0.75,3.6
2008-10-30 15:00, 0.81,3.2
2008-10-30 16:00, 0.82,3.2
2008-10-30 17:00, 0.70,2.9
2008-10-30 18:00, 0.69,2.9
2008-10-30 19:00,,
2008-10-30 20:00, 0.80,2.9
2008-10-30 21:00, 0.79,2.7
2008-10-30 22:00,,
2008-10-30 23:00, 0.63,4.6
2008-10-31 00:00, 0.96,10.7
2008-10-31 01:00, 0.91,10.7
2008-10-31 02:00, 0.98,10.7
2008-10-31 03:00, 0.76,4.6
2008-10-31 04:00,,
2008-10-31 05:00, 0.84,10.7
2008-10-31 06:00, 0.56,4.6
2008-10-31 07:00, 0.82,10.7
2008-10-31 08:00, 0.75,10.7
2008-10-31 09:00, 0.68,10.7
2008-10-31 10:00, 0.41,4.0
2008-10-31 11:00, 0.39,4.6
2008-10-31 12:00, 0.43,2.3
2008-10-31 13:00, 0.48,2.7
2008-10-31 14:00, 0.50,3.2
2008-10-31 15:00, 0.80,10.7
2008-10-31 16:00, 0.47,2.9
2008-10-31 17:00, 0.72,3.6
2008-10-31 18:00, 0.57,3.2
2008-10-31 19:00, 0.55,3.2
2008-10-31 20:00, 0.47,3.2
2008-10-31 21:00, 0.43,2.9
2008-10-31 22:00, 0.53,2.9
2008-10-31 23:00, 0.40,2.9
2008-11-01 00:00, 0.42,3.6
2008-11-01 01:00, 0.55,2.9
2008-11-01 02:00, 0.66,3.6
2008-11-01 03:00, 0.79,3.6
2008-11-01 04:00, 0.50,3.6
2008-11-01 05:00, 0.40,3.2
2008-11-01 06:00, 0.32,3.6
2008-11-01 07:00, 0.30,3.6
2008-11-01 08:00, 0.31,2.5
2008-11-01 09:00, 0.27,2.1
2008-11-01 10:00, 0.26,2.3
2008-11-01 11:00, 0.26,2.1
2008-11-01 12:00, 0.30,8.0
2008-11-01 13:00, 0.35,8.0
2008-11-01 14:00, 0.33,8.0
2008-11-01 15:00, 0.29,2.1
2008-11-01 16:00, 0.21,1.9
2008-11-01 17:00, 0.46,2.7
2008-11-01 18:00, 0.54,3.6
2008-11-01 19:00, 0.62,4.0
2008-11-01 20:00, 0.86,4.0
2008-11-01 21:00, 0.70,4.6
2008-11-01 22:00, 0.72,4.6
2008-11-01 23:00, 0.61,4.6
2008-11-02 00:00, 0.68,4.6
2008-11-02 01:00, 0.60,5.3
2008-11-02 02:00, 0.69,4.0
2008-11-02 03:00, 0.64,4.6
2008-11-02 04:00, 0.62,4.6
2008-11-02 05:00, 0.73,4.0
2008-11-02 06:00, 0.73,4.6
2008-11-02 07:00, 0.68,4.6
2008-11-02 08:00, 0.83,2.7
2008-11-02 09:00, 0.89,2.7
2008-11-02 10:00, 0.86,2.9
2008-11-02 11:00, 0.88,4.6
2008-11-02 12:00, 0.91,4.6
2008-11-02 13:00, 0.79,4.6
2008-11-02 14:00, 1.05,4.6
2008-11-02 15:00, 1.25,5.3
2008-11-02 16:00, 1.28,6.4
2008-11-02 17:00, 1.16,5.3
2008-11-02 18:00, 1.19,6.4
2008-11-02 19:00, 0.99,5.3
2008-11-02 20:00, 0.79,5.3
2008-11-02 21:00, 0.62,4.6
2008-11-02 22:00, 0.62,4.6
2008-11-02 23:00, 0.52,4.6
2008-11-03 00:00, 0.48,4.6
2008-11-03 01:00, 0.49,4.6
2008-11-03 02:00, 0.47,4.0
2008-11-03 03:00, 0.51,6.4
2008-11-03 04:00, 0.44,5.3
2008-11-03 05:00, 0.41,4.6
2008-11-03 07:00,,
2008-11-03 08:00, 0.51,2.7
2008-11-03 09:00, 0.53,3.2
2008-11-03 10:00, 0.56,2.9
2008-11-03 11:00, 0.60,2.9
2008-11-03 12:00, 0.71,3.2
2008-11-03 13:00, 0.65,3.6
2008-11-03 14:00, 0.75,4.0
2008-11-03 15:00, 0.59,3.6
2008-11-03 16:00, 0.73,3.6
2008-11-03 17:00, 0.72,3.6
2008-11-03 18:00, 0.67,4.0
2008-11-03 19:00, 0.64,4.0
2008-11-03 20:00, 0.71,4.0
2008-11-03 21:00, 0.69,4.6
2008-11-03 22:00, 0.64,4.0
2008-11-03 23:00, 0.60,4.6
2008-11-04 00:00, 0.54,2.5
2008-11-04 01:00, 0.59,8.0
2008-11-04 02:00,,
2008-11-04 03:00,,
2008-11-04 04:00, 0.59,5.3
2008-11-04 05:00, 0.58,3.2
2008-11-04 06:00, 0.56,4.6
2008-11-04 07:00, 0.53,2.7
2008-11-04 08:00, 0.44,2.7
2008-11-04 09:00, 0.41,4.6
2008-11-04 10:00, 0.39,4.6
2008-11-04 11:00, 0.40,2.5
2008-11-04 12:00, 0.41,2.7
2008-11-04 13:00, 0.45,8.0
2008-11-04 14:00, 0.30,2.5
2008-11-04 15:00, 0.42,10.7
2008-11-04 16:00, 0.21,2.5
2008-11-04 17:00, 0.41,10.7
2008-11-04 18:00, 0.32,10.7
2008-11-04 19:00, 0.34,10.7
2008-11-04 20:00, 0.37,10.7
2008-11-04 21:00, 0.35,10.7
2008-11-04 22:00, 0.46,10.7
2008-11-04 23:00, 0.24,4.6
2008-11-05 00:00, 0.36,2.7
2008-11-05 01:00, 0.44,3.2
2008-11-05 02:00, 0.35,3.2
2008-11-05 03:00, 0.31,2.7
2008-11-05 04:00, 0.32,2.7
2008-11-05 05:00, 0.40,8.0
2008-11-05 06:00, 0.29,3.6
2008-11-05 07:00, 0.22,3.2
2008-11-05 08:00, 0.40,10.7
2008-11-05 09:00, 0.30,6.4
2008-11-05 10:00, 0.46,10.7
2008-11-05 11:00, 0.42,10.7
2008-11-05 12:00, 0.39,10.7
2008-11-05 13:00, 0.38,8.0
2008-11-05 14:00, 0.34,8.0
2008-11-05 15:00, 0.40,10.7
2008-11-05 16:00, 0.36,6.4
2008-11-05 17:00, 0.35,10.7
2008-11-05 18:00, 0.36,6.4
2008-11-05 19:00, 0.37,10.7
2008-11-05 20:00, 0.34,10.7
2008-11-05 21:00, 0.37,10.7
2008-11-05 22:00, 0.35,10.7
2008-11-05 23:00, 0.36,10.7
2008-11-06 00:00, 0.30,8.0
2008-11-06 01:00, 0.47,10.7
2008-11-06 02:00, 0.24,2.5
2008-11-06 03:00, 0.31,2.9
2008-11-06 04:00, 0.55,8.0
2008-11-06 05:00, 0.56,4.0
2008-11-06 06:00, 0.75,8.0
2008-11-06 07:00, 0.76,8.0
2008-11-06 08:00, 0.97,6.4
2008-11-06 09:00, 0.98,8.0
2008-11-06 10:00, 0.85,3.6
2008-11-06 11:00, 0.90,3.6
2008-11-06 12:00, 1.46,10.7
2008-11-06 13:00, 1.63,10.7
2008-11-06 14:00, 1.82,4.6
2008-11-06 15:00, 1.93,10.7
2008-11-06 16:00, 1.50,5.3
2008-11-06 17:00, 1.89,10.7
2008-11-06 18:00, 2.00,5.3
2008-11-06 20:00, 2.03,5.3
2008-11-06 21:00, 2.02,5.3
2008-11-06 22:00, 1.44,5.3
2008-11-06 23:00, 1.98,5.3
2008-11-07 00:00, 1.96,10.7
2008-11-07 01:00, 1.94,10.7
2008-11-07 02:00, 1.98,10.7
2008-11-07 03:00, 1.79,10.7
2008-11-07 04:00, 1.96,10.7
2008-11-07 05:00, 1.77,8.0
2008-11-07 06:00, 1.90,10.7
2008-11-07 07:00, 1.73,10.7
2008-11-07 08:00,,
2008-11-07 09:00, 1.80,10.7
2008-11-07 10:00, 1.56,10.7
2008-11-07 11:00, 1.67,10.7
2008-11-07 12:00, 1.70,10.7
2008-11-07 13:00, 1.71,10.7
2008-11-07 14:00, 1.93,10.7
2008-11-07 15:00, 1.95,10.7
2008-11-07 16:00, 1.51,10.7
2008-11-07 17:00, 1.40,8.0
2008-11-07 18:00, 1.46,10.7
2008-11-07 19:00, 1.75,10.7
2008-11-07 20:00, 1.70,10.7
2008-11-07 21:00, 1.51,10.7
2008-11-07 22:00, 1.37,10.7
2008-11-07 23:00, 1.15,10.7
2008-11-08 00:00, 1.25,10.7
2008-11-08 01:00, 1.35,10.7
2008-11-08 02:00, 1.17,8.0
2008-11-08 03:00, 1.31,8.0
2008-11-08 04:00, 1.19,8.0
2008-11-08 05:00, 1.48,8.0
2008-11-08 06:00, 1.21,10.7
2008-11-08 07:00, 1.43,8.0
2008-11-08 08:00, 1.28,10.7
2008-11-08 09:00, 1.33,10.7
2008-11-08 10:00, 1.10,8.0
2008-11-08 11:00, 1.02,8.0
2008-11-08 12:00, 1.18,10.7
2008-11-08 13:00, 1.07,10.7
2008-11-08 14:00, 0.96,8.0
2008-11-08 15:00, 1.01,8.0
2008-11-08 16:00, 0.96,8.0
2008-11-08 17:00, 1.20,10.7
2008-11-08 18:00, 1.09,8.0
2008-11-08 19:00,,
2008-11-08 20:00, 1.28,8.0
2008-11-08 21:00, 1.01,8.0
2008-11-08 22:00, 1.11,8.0
2008-11-08 23:00, 1.01,8.0
2008-11-09 00:00, 1.11,10.7
2008-11-09 01:00, 1.01,8.0
2008-11-09 02:00, 1.06,8.0
2008-11-09 03:00, 1.00,8.0
2008-11-09 04:00, 0.72,3.6
2008-11-09 05:00, 1.15,8.0